GFSNE_850_spd_135.txt.gz
Wind_Speed
51 47 48 47 47 46 46 40 34 26 32 36 33 32 29 27 26 27 29 29 25 25 25 28 29 31 34 35 36 38 40 40 40 38 38 38 38 37
47 45 44 45 42 41 41 40 37 36 33 32 28 26 22 24 23 29 31 30 30 28 29 29 28 31 33 35 36 39 42 44 44 44 42 41 40 40
45 47 46 46 41 41 40 38 37 35 33 34 29 27 26 25 25 24 27 26 23 24 29 32 30 30 32 33 36 37 40 44 48 49 49 46 44 43
36 43 38 38 39 43 39 40 38 36 38 38 36 32 31 32 28 27 27 27 28 31 29 31 34 32 33 32 33 37 39 41 43 49 52 50 50 49
41 35 39 40 43 40 36 40 42 42 40 37 39 29 37 28 26 22 26 27 29 30 32 30 34 37 36 35 37 36 40 41 43 47 51 52 53 54
18 13 20 21 32 30 34 33 36 32 28 28 34 38 32 27 24 25 28 29 33 35 36 38 37 38 37 38 39 38 37 39 43 46 49 50 51 57
18 15 12 10 10 12 14 12 16 21 17 25 20 24 21 18 18 21 27 33 32 30 29 33 38 36 39 37 42 38 39 41 42 47 48 49 51 52
19 19 16 11 10 17 11 6 2 5 6 11 14 16 18 21 25 22 22 24 28 29 35 36 39 42 36 35 33 36 39 40 39 40 44 48 50 48
20 19 18 15 14 12 12 11 8 9 9 7 8 12 13 16 20 22 22 24 24 23 22 33 34 33 29 31 31 33 35 36 39 40 44 47 48 50
21 20 18 17 17 15 14 8 9 10 8 7 7 9 10 12 14 17 20 24 27 25 29 29 29 32 33 35 34 37 35 34 36 39 41 44 45 46
24 22 22 20 18 14 11 12 12 11 10 10 10 10 11 12 13 15 17 20 21 20 22 25 27 31 34 38 40 40 40 40 39 40 41 41 41 42
23 23 24 21 19 18 15 14 13 11 9 7 8 10 11 12 12 13 14 15 16 16 16 18 19 21 23 35 37 40 41 42 42 46 41 41 41 40
23 22 22 22 20 17 15 14 13 12 11 11 10 10 10 11 12 12 13 13 14 13 17 20 21 22 22 26 29 29 29 31 36 39 40 43 43 40
21 21 20 19 19 19 18 16 13 12 11 11 12 12 12 12 12 13 14 14 15 16 17 18 20 19 23 28 28 28 28 29 29 29 29 30 28 26
18 18 17 17 18 17 18 18 18 18 18 16 16 15 15 16 16 14 14 14 15 15 17 18 18 18 20 24 26 25 21 21 22 21 21 19 18 18
23 19 15 14 14 14 14 15 16 16 17 16 15 14 14 14 15 16 14 13 12 13 15 14 14 15 16 18 21 22 19 13 11 13 13 12 10 10
26 24 25 25 24 22 20 18 16 16 16 17 17 18 17 16 15 15 15 15 14 16 15 14 13 12 10 12 13 12 12 12 11 9 9 9 7 7
28 27 28 28 28 28 27 24 21 19 17 18 17 18 18 18 19 17 15 16 17 16 16 16 14 13 12 9 6 5 4 6 8 7 7 6 7 6
27 27 26 26 26 25 25 25 24 21 18 17 17 17 18 17 17 17 17 15 14 17 17 16 15 12 11 13 6 3 3 5 6 7 6 5 6 7
28 27 27 28 28 27 25 24 24 23 22 20 18 17 16 17 17 16 16 16 17 18 18 13 11 12 8 7 6 4 4 2 5 7 8 10 10 10
25 25 26 27 28 28 26 24 23 22 23 23 19 17 15 15 14 14 15 13 14 14 14 13 11 8 9 7 6 7 7 6 6 7 11 12 15 14
23 24 25 26 28 28 28 27 25 22 20 19 17 14 12 12 13 15 15 16 14 14 14 12 11 9 8 9 7 7 8 8 8 9 13 11 12 10
18 19 22 24 25 27 26 26 26 24 22 21 18 15 12 12 11 12 13 14 15 14 13 12 11 8 6 5 7 6 7 8 9 10 9 8 6 4

GFSNE_850_spd_138.txt.gz
Wind_Speed
30 36 43 48 49 49 47 40 35 25 30 29 27 24 25 26 26 27 26 25 25 27 27 26 26 26 29 31 33 33 33 35 35 36 33 34 34 36
41 31 38 41 45 44 46 45 45 40 31 33 33 32 30 30 30 29 27 25 30 31 32 30 27 28 28 30 32 34 34 33 35 38 39 38 39 38
41 36 29 39 42 43 43 43 44 42 41 42 38 33 31 28 25 26 25 26 26 31 34 33 29 30 30 31 31 32 34 34 34 36 39 43 43 42
35 29 25 31 35 37 39 41 35 35 38 42 41 38 36 32 28 27 26 26 23 23 26 26 23 26 31 35 33 33 33 34 36 36 37 38 43 49
32 34 26 24 30 35 39 40 35 39 39 38 40 39 35 35 35 35 31 24 24 28 26 32 34 33 32 33 36 37 36 36 35 37 39 41 42 42
12 11 7 10 12 12 27 31 36 40 38 37 36 40 39 35 32 29 31 27 25 26 27 29 32 35 36 36 37 39 40 39 38 39 38 42 44 43
29 17 17 17 14 11 7 10 17 20 30 22 28 22 20 34 32 29 30 31 28 30 27 30 30 33 30 31 35 40 40 40 41 40 37 40 43 45
33 30 26 22 21 21 19 15 11 8 8 6 9 15 11 9 12 14 12 15 17 29 29 30 28 30 33 28 30 36 37 39 37 38 39 41 42 43
30 25 24 21 19 18 18 19 13 11 11 8 5 3 6 11 13 11 10 14 15 18 23 26 26 29 30 35 33 35 30 29 32 34 36 38 42 43
31 31 25 23 18 17 14 12 14 12 12 10 10 5 6 9 13 14 14 14 13 17 19 22 26 27 28 29 29 29 30 33 34 36 36 36 38 41
30 28 25 21 16 13 10 11 13 12 10 11 9 9 7 8 9 10 10 11 11 14 17 19 21 24 26 30 32 34 36 38 39 39 41 40 41 41
28 27 28 26 22 20 18 16 14 15 12 9 8 8 8 10 11 11 13 12 11 7 8 15 15 18 17 26 26 22 23 27 32 34 37 39 42 42
29 28 27 24 24 22 21 20 19 16 14 13 12 10 10 10 10 10 10 11 10 9 13 17 14 16 15 22 27 27 28 29 31 32 34 33 33 35
27 24 24 24 24 23 20 18 15 13 12 13 14 15 15 15 14 14 14 13 12 12 14 16 18 17 18 24 24 22 22 25 27 27 28 29 29 28
26 21 18 17 16 16 17 19 19 19 19 18 18 17 16 17 17 14 12 13 14 13 14 14 15 17 18 20 25 25 24 22 24 23 22 23 23 22
26 24 23 21 21 19 18 19 18 18 18 18 17 16 15 14 16 17 18 17 15 11 13 17 18 17 17 17 21 22 21 16 19 19 17 16 15 15
26 25 25 27 26 24 22 21 19 17 17 17 18 18 18 18 16 16 16 17 16 18 19 15 14 18 19 19 18 17 17 15 14 13 12 11 10 9
30 32 33 32 31 30 28 26 24 22 19 18 17 17 18 18 19 17 16 16 17 17 19 20 20 17 16 16 15 15 13 11 9 9 8 8 7 6
29 29 29 29 30 29 29 28 27 25 22 19 18 16 15 15 15 15 16 17 16 17 16 17 17 16 15 14 11 12 12 8 7 7 6 6 6 4
30 30 29 28 28 28 28 28 27 25 23 23 21 18 15 15 15 14 14 17 18 18 17 14 13 13 13 13 12 10 9 7 6 7 6 6 7 6
26 26 26 27 28 29 28 28 27 27 26 24 22 21 18 16 14 14 15 15 16 17 17 14 12 13 12 13 11 8 6 6 5 6 7 8 10 10
18 18 20 21 23 25 27 29 30 30 28 26 24 21 18 16 15 14 15 17 17 17 18 16 13 13 11 13 14 9 7 5 5 7 10 8 8 7
15 15 15 17 18 20 21 23 25 27 27 25 24 20 18 15 14 14 15 16 17 19 19 16 11 10 10 9 7 6 6 6 7 8 9 6 5 3

GFSNE_850_spd_141.txt.gz
Wind_Speed
34 43 45 41 31 41 49 43 36 21 27 33 31 35 41 42 39 35 33 32 30 28 29 30 29 29 29 30 30 31 33 34 33 34 33 32 35 32
24 43 48 32 38 36 44 45 45 37 29 34 35 27 23 25 29 32 34 32 30 30 30 32 33 32 31 30 30 31 32 34 34 34 34 34 35 33
31 40 43 50 43 28 45 42 45 43 35 30 27 28 27 27 26 26 28 33 34 31 29 33 36 37 34 32 31 31 31 33 34 36 35 35 35 36
26 31 33 34 34 36 34 37 37 41 41 38 35 32 30 29 29 29 30 30 32 31 29 30 31 38 37 34 33 33 32 32 33 35 36 35 35 36
20 20 27 31 33 27 18 26 30 34 36 38 33 33 30 30 29 30 30 30 30 27 25 25 24 25 27 28 29 31 34 36 36 36 36 36 36 39
25 13 10 12 15 20 30 23 27 31 32 31 30 28 25 26 29 28 28 32 34 36 29 29 28 28 31 31 30 32 32 35 39 39 38 37 37 37
36 35 31 27 17 9 9 11 22 28 33 31 19 24 22 21 23 23 28 31 31 32 31 31 30 31 31 29 29 29 33 36 36 39 41 41 40 41
36 38 36 34 30 27 24 20 16 12 8 8 16 11 10 13 6 7 15 21 26 26 25 29 31 29 30 30 29 30 30 30 34 38 41 42 42 41
38 36 41 34 31 27 24 20 19 17 19 17 16 14 9 7 2 3 6 7 11 19 17 18 19 20 22 26 27 28 29 30 31 35 37 38 41 41
36 36 34 33 30 25 23 21 18 16 15 14 13 14 13 10 9 5 9 8 9 12 14 16 17 16 18 20 25 27 28 28 29 31 32 32 33 36
35 35 35 32 26 21 18 20 17 18 17 14 13 10 9 7 7 6 6 8 4 10 11 13 17 20 18 19 20 24 27 30 31 32 33 34 37 40
33 33 33 30 28 25 24 21 18 19 13 10 8 7 8 9 8 9 9 7 8 5 6 10 8 11 7 13 14 15 17 20 22 25 27 27 33 36
34 34 33 32 29 26 23 23 22 18 16 14 12 10 9 10 11 11 10 11 10 8 12 12 10 12 10 16 19 19 18 20 22 25 28 30 31 33
33 29 26 24 24 23 22 22 18 16 14 14 13 13 14 14 14 13 12 10 10 11 13 15 14 15 17 20 22 21 22 21 21 21 22 24 25 26
30 27 23 22 20 21 21 19 18 18 18 18 19 17 16 15 15 12 11 11 11 11 15 16 16 16 16 17 20 24 26 24 21 17 16 20 20 21
28 27 25 24 23 22 21 21 21 21 22 20 19 17 16 15 16 16 15 14 13 11 11 14 17 18 18 18 19 21 21 18 22 22 21 20 19 18
26 23 23 23 24 26 27 26 24 22 22 21 20 19 19 18 17 16 16 16 15 15 16 16 16 16 17 17 18 16 17 18 18 18 17 16 17 16
26 27 27 25 25 27 28 27 27 26 24 22 21 19 19 18 18 16 14 15 15 15 16 17 17 18 13 15 17 15 16 15 16 15 14 13 12 13
25 24 25 26 24 22 25 27 28 28 25 24 23 21 19 17 16 15 15 14 15 15 14 13 14 14 14 14 13 17 16 14 13 12 11 11 11 12
20 18 20 23 23 23 26 28 28 28 28 26 24 22 20 17 16 14 14 15 16 16 16 14 12 13 14 13 14 14 17 16 11 11 10 10 11 8
19 17 15 15 16 18 23 25 26 29 29 27 26 24 21 19 16 14 14 15 16 15 17 16 15 14 15 14 15 14 13 13 12 10 10 7 7 6
20 17 16 16 19 22 24 26 28 27 28 28 28 26 23 20 18 16 15 16 16 16 18 19 17 14 12 11 14 15 11 11 10 9 11 11 7 5
19 19 19 18 18 19 22 22 24 27 30 31 30 28 25 20 16 14 15 15 16 17 16 19 18 13 11 10 10 9 10 8 7 3 8 10 9 11

GFSNE_850_spd_144.txt.gz
Wind_Speed
29 31 34 37 45 48 48 45 36 29 32 27 26 45 45 35 36 38 38 37 36 34 33 34 34 33 34 35 34 34 34 37 37 36 37 36 35 34
22 26 29 33 42 44 46 45 42 35 27 31 29 27 38 42 37 37 37 39 38 36 35 34 34 34 34 34 34 34 36 34 36 37 38 39 37 36
15 17 19 24 27 33 41 35 36 45 41 32 28 27 30 31 36 39 37 39 40 38 37 37 36 35 36 36 35 35 35 36 36 37 39 40 40 38
12 15 17 21 28 32 25 25 42 48 36 30 29 24 27 31 26 23 23 26 30 34 35 36 35 34 36 38 40 39 38 37 37 37 38 39 40 39
4 5 8 12 17 28 31 39 38 34 33 35 34 22 22 24 24 25 24 25 24 25 31 33 32 31 32 36 41 43 43 41 40 39 39 40 40 40
19 15 9 3 7 10 15 24 31 38 39 34 25 18 25 32 29 24 23 25 26 27 30 30 27 26 27 28 32 39 41 39 39 40 42 43 43 42
35 33 33 31 23 15 6 17 16 15 23 26 20 10 17 21 24 23 26 27 30 31 29 30 31 29 27 30 32 34 35 35 37 37 38 40 44 45
37 34 32 33 33 33 32 28 16 9 12 14 11 14 7 3 13 16 16 20 18 24 26 25 28 31 30 32 34 36 36 40 40 41 41 43 43 46
32 31 30 30 29 29 31 31 32 31 29 25 21 17 11 8 4 7 5 9 15 16 21 18 16 21 27 25 25 28 36 33 33 35 35 34 37 43
36 35 36 34 29 23 27 29 30 29 28 24 20 19 15 11 9 8 5 5 3 2 3 8 12 12 16 21 20 19 21 24 26 27 30 33 34 38
36 36 35 32 28 25 26 26 28 27 24 22 19 16 14 13 9 6 3 3 3 6 5 7 10 13 12 14 18 21 15 20 26 27 30 32 34 35
35 35 35 33 30 29 27 26 24 25 21 17 15 15 14 12 11 10 8 7 7 7 8 9 9 12 6 9 12 15 18 18 21 25 26 28 30 31
33 34 33 30 29 29 29 30 28 22 20 18 17 16 15 14 14 13 11 9 8 6 10 11 9 10 10 15 15 16 16 16 18 19 21 23 26 29
32 30 28 26 25 25 26 24 20 18 18 17 17 19 19 19 16 13 12 11 9 8 11 12 11 13 14 16 16 18 21 19 18 19 19 19 20 21
27 24 23 24 24 26 25 22 22 22 22 21 21 20 20 19 17 15 14 11 9 11 12 13 13 14 14 15 17 20 24 22 18 16 21 20 22 22
22 23 23 24 26 26 26 27 26 25 23 23 22 20 18 18 18 18 17 16 13 11 14 17 15 16 15 15 16 19 18 15 22 21 22 21 21 20
20 20 22 23 23 24 24 26 27 26 25 23 21 20 19 19 18 17 16 16 14 15 15 13 17 16 16 17 16 13 15 17 17 20 21 19 18 21
20 22 22 21 21 21 22 22 23 24 24 22 21 21 20 19 18 17 15 15 15 15 16 16 17 16 14 13 14 12 15 15 16 17 18 17 15 15
17 18 18 18 18 17 17 17 18 19 19 19 19 20 20 18 17 15 15 15 16 17 17 17 17 16 18 17 14 15 15 17 17 15 15 15 17 17
14 14 14 15 15 16 17 16 17 18 19 19 20 20 20 19 19 17 17 18 18 19 18 16 15 16 17 20 23 22 18 17 15 15 14 14 17 15
15 14 14 13 14 14 14 15 16 18 19 20 20 20 20 20 18 18 18 18 19 18 19 18 18 21 19 18 20 18 15 18 21 18 15 12 12 10
16 16 15 15 14 14 15 15 16 17 18 18 19 19 19 19 18 18 18 19 19 19 20 20 20 20 18 17 19 18 17 13 16 13 15 14 13 7
16 16 16 15 16 15 14 15 15 16 16 16 17 18 19 20 19 18 18 18 19 20 19 21 20 19 18 18 18 17 16 13 10 8 9 13 12 14